Temp_Advection
nan nan nan nan nan nan nan nan nan nan nan nan nan nan nan nan nan nan nan nan nan nan nan nan nan nan nan nan nan nan nan nan nan nan nan nan nan nan nan nan nan nan nan nan
nan -0 -0 -0 -0 -0 -0 -0 -0 -0 -0 0 -0 -0 -2 -1 0 0 -0 1 0 -0 -0 -0 -0 -1 -0 -0 -0 0 0 0 0 0 0 0 0 0 0 0 0 0 0 nan
nan -0 -0 -0 -0 -0 -0 -0 -0 -0 0 -0 -0 -0 -1 -0 0 1 0 0 -1 -0 -0 -1 -1 -1 -0 -0 0 0 0 0 0 0 0 -0 0 0 0 -0 -0 0 0 nan
nan -0 -0 -0 -0 -0 -0 -0 -0 -0 0 -0 0 -0 0 0 0 0 -0 0 0 0 0 0 -0 0 -0 0 0 0 0 -0 -0 -0 -0 -0 -0 -0 -1 -0 0 0 0 nan
nan 0 0 -0 -0 -0 -0 -0 -0 -0 0 -0 0 0 -0 0 -0 0 0 0 1 1 0 0 0 -0 0 1 1 0 -0 -0 -0 0 -0 0 -0 -0 0 0 0 0 0 nan
nan -0 -0 -0 -0 -0 0 0 0 0 -0 -0 -0 -0 -0 0 -0 -0 0 0 0 0 -0 -1 -0 0 1 1 -0 -0 -0 0 0 0 0 0 -0 0 0 -0 0 0 0 nan
nan -0 -0 -0 0 0 -0 -0 0 0 0 0 -0 -0 -0 -0 -0 -0 -1 -0 -0 -0 0 -0 -0 -0 0 -0 -0 1 0 0 0 -0 0 -0 -0 0 0 0 0 0 0 nan
nan -0 0 -0 -0 -0 0 -0 -0 0 0 0 -0 -0 -0 0 0 0 -0 -2 -0 0 -1 -0 -0 -0 0 0 1 0 0 -0 -0 -0 -0 -0 0 1 0 1 0 0 -0 nan
nan -0 0 -0 -0 -0 0 0 -0 -0 0 0 0 -0 -0 0 0 1 0 0 1 -1 -2 -0 -0 0 1 1 0 1 -0 -0 -1 -0 0 0 0 0 0 1 0 -0 -0 nan
nan -0 0 -0 -0 -0 0 0 -0 -0 0 -0 0 -0 -0 -0 -0 0 0 1 0 -0 0 -0 -0 1 1 0 1 0 -0 -0 -1 -0 0 -0 0 1 1 0 -0 -0 -0 nan
nan -0 -0 0 0 0 0 0 -0 -0 -0 -0 -0 0 0 -0 0 0 0 0 1 1 -0 -0 -0 0 1 0 0 -0 0 -1 -1 -0 0 1 1 1 -0 -1 -1 -0 0 nan
nan -0 -0 -0 -0 -0 -0 0 0 0 0 0 0 -0 0 0 0 -0 0 0 -0 -1 -0 -0 -0 0 0 -0 -0 1 -0 -1 -0 0 1 0 1 0 -1 -1 0 0 0 nan
nan -0 -0 -0 0 -0 0 0 0 -0 -0 -0 0 -0 -0 0 -0 -0 0 0 -0 -0 -1 -1 0 0 -0 0 0 0 -0 -0 0 1 0 0 0 -0 -0 0 0 0 0 nan
nan -0 -0 0 0 0 0 0 0 -0 -0 -0 -0 -0 0 0 0 0 -0 0 0 -0 -0 0 0 -1 -0 -0 -0 0 -0 -0 0 0 -0 -0 0 0 0 0 0 0 0 nan
nan -0 -0 0 -0 -0 -0 -0 0 -0 -0 -0 0 -0 -0 0 -0 0 -0 0 -0 -0 -0 -1 -1 0 1 0 -0 0 -0 -0 1 0 -0 0 0 1 0 0 0 0 0 nan
nan -0 -0 -0 -0 0 -0 0 -0 -0 -0 -0 0 -0 -0 -0 0 0 -0 -0 -0 -0 -0 0 1 2 0 -0 0 0 0 1 1 1 0 0 1 0 0 0 0 0 0 nan
nan -0 -0 -0 -0 0 -0 -0 -1 -0 -0 0 -0 -0 0 -0 0 -0 -0 -0 -1 -0 -0 -0 0 1 1 1 0 0 2 2 1 0 0 0 0 0 1 0 0 0 1 nan
nan -0 -0 -0 -0 -1 -0 -0 -0 -0 0 1 -0 -0 0 -0 -0 -0 -0 -0 -0 -1 -1 -0 -0 -0 0 2 1 1 1 -0 -1 -0 0 0 0 0 1 1 1 1 0 nan
nan 0 -0 -0 -0 -1 -1 0 0 0 0 -0 0 0 -0 -1 -1 -0 -1 -0 -0 -0 -1 -1 -0 0 1 1 1 0 -0 -0 -0 0 0 0 1 1 1 1 1 1 1 nan
nan -0 0 0 -0 0 -0 -0 -0 0 0 0 -0 -0 -0 -0 0 0 -1 -1 -0 -0 -1 -1 -0 1 1 1 0 -0 -0 0 0 1 1 1 1 1 1 2 2 2 2 nan
nan -0 -0 -0 -0 -0 -0 -0 0 0 0 -0 -0 -0 0 0 -0 -0 -0 -0 -0 -0 -0 -0 0 1 1 0 0 0 0 1 1 2 2 2 2 2 2 2 1 1 1 nan
nan -0 -0 -0 -0 -0 -0 0 0 0 0 0 -0 -0 -0 0 0 -0 0 -0 -0 -0 -0 -0 0 1 1 0 1 1 1 1 1 1 1 1 1 1 1 1 1 1 1 nan
nan 0 0 -0 -0 -0 -0 -0 0 0 0 0 0 0 -0 -0 -0 -0 -0 -0 -0 -0 -0 -0 0 0 0 1 1 1 1 1 1 1 1 1 1 1 1 1 1 1 1 nan
nan 0 -0 0 -0 -0 -1 -0 -0 -0 -0 -0 -0 0 0 0 -0 -0 -0 -0 -0 -0 -0 -0 0 0 0 0 0 1 1 1 1 1 1 1 1 1 1 1 1 1 1 nan
nan -0 0 -0 -1 -1 -2 -0 0 0 0 0 0 0 -0 0 0 0 -0 -0 -0 0 0 0 0 0 0 0 0 0 1 1 1 1 1 1 1 1 1 1 1 1 1 nan
nan nan nan nan nan nan nan nan nan nan nan nan nan nan nan nan nan nan nan nan nan nan nan nan nan nan nan nan nan nan nan nan nan nan nan nan nan nan nan nan nan nan nan nan
Wind_Speed
1 2 5 7 10 9 8 3 7 11 12 8 10 7 20 17 18 28 28 29 33 36 42 39 39 38 36 36 36 37 36 34 32 31 31 30 29 26 23 21 19 20 19 19
2 7 7 10 11 11 12 10 9 14 11 7 11 13 18 8 18 27 30 31 35 35 33 37 35 34 34 36 37 37 35 34 33 32 32 31 30 26 22 20 20 20 20 20
4 5 4 8 8 12 12 12 9 7 9 5 5 7 10 0 9 23 20 30 37 38 37 37 35 34 34 36 38 38 37 35 34 33 33 31 29 25 24 23 23 22 21 20
7 2 1 5 7 5 6 13 15 13 6 2 3 4 4 3 7 15 24 24 38 36 38 40 39 39 37 34 36 36 35 34 33 34 34 34 33 31 29 25 23 22 21 21
3 3 5 6 7 7 8 11 13 12 6 6 2 1 5 6 10 15 16 16 23 34 37 38 41 41 38 35 36 36 36 32 34 34 34 35 33 30 29 23 23 23 22 21
7 4 4 3 2 6 5 12 12 7 1 3 4 5 3 8 11 12 5 7 15 18 36 39 39 38 37 33 35 35 38 36 35 35 35 36 35 34 30 24 23 24 24 23
3 3 3 3 4 2 1 3 2 3 2 2 7 5 7 6 9 16 16 18 14 14 30 38 39 38 36 35 36 38 40 42 39 40 40 37 38 35 30 27 26 25 25 26
0 6 6 3 2 0 3 2 2 3 4 4 2 5 5 10 13 21 31 26 27 25 29 39 42 40 40 38 36 37 40 42 41 40 40 39 40 39 34 34 31 29 24 25
2 5 1 3 2 2 2 2 1 3 2 2 3 5 7 4 6 13 20 26 28 43 42 41 44 43 42 42 40 36 36 38 37 36 38 40 41 40 33 34 31 27 23 22
2 4 2 1 1 1 3 2 3 3 2 3 2 4 3 3 9 12 21 29 47 45 36 38 40 44 43 43 40 36 34 35 35 34 35 39 36 38 36 36 30 23 21 24
2 2 4 2 7 7 2 2 1 1 3 1 1 3 4 4 5 11 14 27 29 35 40 42 42 43 47 45 42 42 38 36 33 34 33 35 34 36 36 33 31 29 28 26
2 2 4 9 2 3 1 3 3 2 2 2 2 4 1 6 8 5 8 18 22 31 37 40 40 39 42 45 45 45 41 39 35 34 32 32 33 30 27 28 30 30 28 23
1 3 3 5 5 3 3 3 3 3 1 3 3 4 1 4 1 7 10 15 18 21 27 34 37 39 39 40 41 41 40 40 38 36 34 32 31 29 27 27 29 30 31 27
1 3 5 5 2 1 3 4 6 6 3 3 5 4 7 4 5 5 6 13 17 21 23 27 31 36 38 40 40 40 40 41 40 36 34 31 30 28 28 27 27 27 27 29
2 4 3 5 8 5 7 5 5 9 10 8 6 11 12 3 5 1 7 8 6 10 18 25 29 33 36 38 38 38 38 40 43 42 36 32 32 30 29 29 29 29 29 30
1 3 2 6 7 9 12 9 9 10 12 10 8 10 6 6 5 5 4 4 6 8 9 13 22 28 32 35 37 38 40 39 43 45 43 37 33 32 33 33 32 31 30 31
2 2 2 4 3 4 6 13 16 9 7 9 12 13 4 6 7 10 6 10 13 13 14 14 16 20 27 32 34 35 36 35 38 43 43 39 35 34 34 33 33 33 33 32
3 2 2 3 2 5 4 1 5 11 8 10 3 3 5 2 3 6 8 10 10 11 12 14 15 16 18 24 29 30 30 31 36 40 40 38 39 37 35 35 35 34 34 32
7 2 3 3 4 7 11 1 4 5 1 3 2 2 3 9 10 7 11 14 16 15 13 13 13 13 16 19 22 24 27 30 34 37 37 40 41 38 37 35 35 34 32 31
6 4 3 2 4 6 4 1 2 2 3 3 3 2 1 1 2 1 11 11 10 12 14 13 11 12 14 16 18 23 27 29 33 35 34 35 34 33 33 34 32 31 29 26
4 2 10 6 4 6 6 4 1 3 2 2 3 2 3 2 2 9 10 10 10 10 9 8 10 12 13 14 17 22 24 27 28 28 30 30 29 27 27 26 24 22 21 20
6 6 3 4 3 7 1 1 4 2 4 2 2 3 2 1 2 4 8 9 9 7 7 4 5 10 13 16 18 19 21 23 23 23 23 23 22 22 21 20 20 18 18 17
3 6 5 8 5 2 3 1 5 3 3 6 6 3 4 5 5 6 7 8 8 7 5 2 2 7 12 14 15 17 18 19 18 18 19 18 17 17 16 16 17 17 17 16
4 3 2 1 4 6 12 15 12 12 14 9 7 9 9 10 10 10 8 7 6 5 3 2 3 6 8 11 12 12 13 14 14 15 16 16 15 16 15 15 15 15 15 16
2 4 4 4 7 11 17 24 20 19 12 7 6 4 4 9 10 11 10 8 7 5 2 4 5 5 6 8 10 11 11 12 14 14 15 16 15 15 15 15 13 13 14 12
5 3 3 7 4 6 7 7 8 7 8 7 6 7 8 12 14 14 12 9 8 8 8 7 8 8 8 8 9 11 12 12 12 14 15 14 15 15 14 14 15 14 12 12
Wind_Direction
235 263 222 196 221 274 320 261 254 297 264 180 189 312 288 264 199 157 163 176 184 182 185 178 188 189 191 193 192 194 195 194 193 192 189 192 193 192 193 195 196 195 193 191
217 254 243 226 219 236 256 252 230 288 183 184 191 265 274 225 176 159 162 183 182 179 175 179 185 191 197 195 196 197 199 194 196 197 195 196 195 194 198 200 196 196 196 198
254 267 225 205 225 219 220 232 229 246 153 60 187 263 262 190 164 162 177 190 174 176 171 179 187 195 197 199 197 198 199 198 199 200 199 198 200 203 201 202 201 200 202 206
244 259 320 228 234 233 266 213 224 233 193 113 187 289 32 119 143 171 195 183 173 175 177 184 189 193 198 199 199 201 201 201 205 204 201 201 205 205 209 210 207 207 209 211
269 284 267 244 252 204 253 189 192 218 117 169 76 92 274 180 176 172 194 191 186 178 178 185 192 195 199 200 200 202 203 205 210 208 206 208 211 213 220 217 214 216 217 217
258 242 239 258 240 213 340 84 79 70 157 62 157 196 248 195 176 173 152 179 195 190 183 192 195 200 201 203 205 204 204 205 210 212 215 216 216 214 217 218 219 221 222 222
255 223 269 273 3 348 70 26 71 58 55 176 174 183 253 217 197 171 172 219 199 221 195 196 198 202 206 205 204 207 208 209 210 215 219 219 217 215 219 228 228 227 227 227
124 331 177 210 145 97 33 359 122 145 178 168 232 221 245 211 185 184 159 187 195 244 214 203 204 204 210 213 209 210 212 214 216 220 223 222 219 214 220 224 233 230 234 237
176 272 357 256 262 125 304 9 225 107 53 71 201 274 289 192 174 178 191 166 206 226 216 206 208 209 211 215 218 213 214 216 221 223 227 228 225 221 221 229 224 220 235 238
306 304 181 298 346 284 153 236 42 12 137 239 207 283 263 166 201 191 189 195 197 214 212 206 210 210 213 218 219 214 215 220 222 226 229 231 234 229 238 228 222 223 227 234
313 240 310 120 206 195 125 159 119 137 145 254 306 281 235 282 238 202 199 199 197 201 203 209 213 217 216 219 222 223 219 223 228 234 236 233 238 241 233 233 220 219 227 227
186 246 258 223 278 216 201 199 122 125 264 181 116 278 212 290 250 251 197 196 200 202 202 210 216 216 217 220 224 227 222 219 224 233 237 243 244 243 228 220 224 233 235 232
321 236 307 340 17 359 213 210 151 91 54 228 87 263 156 329 129 197 183 184 196 209 215 217 220 222 222 224 225 227 223 222 219 227 235 240 240 229 219 227 237 244 239 230
303 252 225 207 160 120 211 211 195 168 156 211 219 258 294 288 21 66 130 171 181 199 214 218 222 226 228 228 230 229 228 226 220 224 230 232 235 232 224 227 237 242 233 234
159 267 261 252 260 257 233 236 228 220 222 211 204 219 248 185 313 7 99 104 136 194 206 215 223 228 229 229 230 230 231 227 221 221 227 228 231 228 230 233 236 238 240 242
339 265 304 282 245 227 247 238 222 221 241 249 267 251 245 281 235 234 272 276 240 237 235 235 233 230 229 228 229 228 228 226 222 222 225 226 228 228 231 233 236 240 245 250
222 225 217 261 322 329 286 207 220 222 196 201 234 243 201 266 259 271 271 262 273 282 280 267 254 243 234 230 230 230 228 226 224 224 224 226 227 230 230 232 235 240 244 250
195 210 258 261 358 248 242 219 208 230 253 227 314 50 225 254 262 300 301 291 286 275 275 271 256 250 246 237 232 232 231 226 219 221 224 227 228 230 232 234 237 240 242 245
213 172 273 262 229 319 308 200 157 176 219 351 225 115 314 318 321 306 302 294 293 290 275 264 263 255 244 235 230 226 226 222 219 219 222 223 225 227 229 232 233 231 231 235
182 239 212 159 248 232 258 33 347 18 251 356 82 69 17 9 176 238 335 317 303 297 282 263 249 239 231 226 220 220 219 219 217 215 219 219 216 218 221 221 219 221 223 222
152 172 223 232 269 288 264 275 104 164 181 108 99 64 14 85 262 316 323 328 328 316 305 273 235 222 216 213 216 214 215 213 212 211 210 211 212 213 218 219 221 222 222 222
174 169 188 178 230 264 225 152 181 169 138 101 144 149 122 74 5 357 354 352 356 349 331 302 228 208 199 201 204 208 207 207 206 207 208 210 211 213 214 217 220 219 220 220
228 191 181 197 210 243 311 266 132 114 317 316 300 292 309 313 319 341 353 356 5 5 7 20 170 194 190 193 194 201 201 204 205 206 206 206 209 211 214 217 220 221 221 222
256 173 214 73 264 240 277 280 265 295 299 293 305 299 300 304 309 311 318 328 334 354 22 77 136 162 175 180 187 189 199 201 202 205 204 211 214 216 219 220 223 223 223 219
217 144 202 264 290 289 289 283 294 299 264 259 266 292 333 330 327 315 302 294 286 280 260 191 174 176 180 180 185 187 190 193 195 195 197 200 202 204 206 204 205 207 203 202
208 210 188 261 357 287 279 315 321 280 254 241 230 256 288 304 297 290 292 287 265 256 247 226 201 194 196 197 194 191 189 192 194 192 189 190 191 191 190 192 186 183 189 194
Height
1461 1461 1459 1459 1454 1450 1448 1443 1432 1428 1437 1435 1443 1450 1436 1429 1420 1423 1435 1445 1454 1459 1464 1469 1474 1481 1487 1493 1498 1503 1509 1514 1521 1527 1531 1537 1542 1544 1548 1551 1555 1559 1562 1566
1462 1457 1455 1452 1451 1451 1448 1446 1439 1436 1431 1433 1438 1442 1434 1422 1416 1418 1429 1443 1451 1458 1460 1466 1471 1478 1485 1489 1495 1501 1507 1512 1518 1525 1529 1533 1541 1542 1546 1550 1554 1557 1560 1564
1459 1450 1448 1448 1446 1443 1444 1444 1438 1440 1430 1436 1439 1446 1427 1418 1415 1422 1428 1439 1445 1450 1454 1461 1467 1475 1480 1486 1491 1497 1503 1509 1515 1522 1527 1531 1539 1541 1543 1546 1551 1553 1557 1561
1451 1446 1446 1443 1440 1443 1434 1426 1430 1435 1428 1433 1436 1428 1420 1419 1419 1418 1431 1428 1437 1444 1449 1456 1463 1471 1476 1483 1489 1496 1501 1507 1513 1518 1523 1526 1532 1534 1540 1542 1548 1552 1555 1558
1448 1443 1442 1438 1432 1432 1426 1424 1425 1428 1432 1435 1441 1439 1429 1422 1423 1423 1430 1433 1436 1441 1446 1453 1459 1466 1474 1480 1486 1492 1499 1504 1509 1515 1519 1525 1528 1533 1539 1541 1545 1549 1552 1555
1448 1440 1436 1431 1427 1425 1419 1415 1422 1424 1425 1428 1438 1438 1425 1417 1416 1425 1430 1434 1439 1444 1445 1453 1459 1465 1471 1477 1483 1489 1494 1500 1505 1511 1515 1519 1522 1528 1534 1537 1541 1544 1548 1551
1441 1439 1431 1426 1424 1422 1423 1428 1430 1432 1429 1429 1436 1437 1421 1414 1408 1413 1422 1432 1434 1443 1448 1452 1456 1461 1468 1472 1478 1484 1489 1494 1499 1505 1508 1513 1518 1524 1528 1533 1537 1540 1544 1546
1452 1445 1434 1428 1426 1430 1430 1429 1432 1438 1431 1426 1429 1425 1410 1400 1401 1407 1414 1431 1433 1435 1448 1448 1452 1457 1462 1467 1472 1478 1484 1489 1494 1499 1503 1508 1513 1516 1521 1524 1531 1536 1538 1542
1450 1436 1429 1428 1427 1427 1427 1433 1429 1432 1433 1425 1426 1419 1408 1403 1405 1405 1409 1412 1429 1430 1440 1440 1446 1451 1457 1463 1467 1473 1479 1484 1489 1494 1498 1503 1508 1511 1514 1520 1524 1527 1533 1537
1445 1444 1429 1428 1429 1428 1428 1430 1432 1433 1438 1427 1427 1422 1406 1404 1404 1408 1407 1405 1409 1419 1425 1433 1439 1445 1452 1458 1464 1470 1474 1477 1483 1488 1493 1497 1501 1506 1507 1514 1520 1524 1528 1531
1451 1445 1434 1430 1431 1428 1427 1429 1428 1432 1437 1431 1427 1414 1403 1399 1400 1402 1406 1407 1411 1417 1422 1427 1433 1441 1448 1454 1458 1463 1469 1473 1478 1483 1488 1491 1496 1499 1502 1510 1515 1520 1525 1527
1448 1449 1440 1428 1420 1419 1420 1420 1422 1427 1428 1440 1435 1419 1405 1405 1401 1395 1398 1404 1409 1415 1419 1425 1432 1438 1442 1447 1453 1456 1462 1467 1473 1478 1482 1486 1490 1493 1498 1503 1509 1513 1517 1520
1447 1443 1445 1433 1430 1424 1423 1423 1423 1428 1431 1425 1429 1416 1403 1404 1402 1399 1398 1400 1405 1412 1418 1423 1428 1432 1437 1442 1447 1451 1455 1460 1467 1472 1476 1479 1483 1487 1492 1498 1503 1507 1510 1514
1446 1443 1434 1428 1423 1426 1425 1424 1426 1423 1435 1431 1420 1411 1400 1399 1402 1398 1399 1402 1404 1409 1414 1419 1423 1427 1430 1435 1440 1444 1448 1455 1461 1465 1469 1472 1476 1480 1486 1491 1496 1500 1504 1507
1445 1441 1436 1431 1428 1427 1425 1422 1422 1422 1414 1414 1414 1411 1398 1400 1399 1397 1398 1398 1401 1406 1410 1413 1415 1418 1422 1425 1429 1434 1440 1445 1452 1457 1462 1465 1469 1475 1479 1484 1489 1493 1496 1500
1445 1439 1437 1428 1422 1422 1418 1417 1417 1416 1412 1411 1409 1404 1399 1397 1399 1398 1397 1398 1400 1403 1404 1406 1409 1412 1414 1417 1421 1426 1430 1435 1442 1447 1452 1457 1462 1467 1472 1476 1481 1485 1489 1492
1444 1439 1435 1429 1421 1421 1418 1407 1403 1397 1400 1400 1402 1390 1394 1393 1392 1393 1397 1398 1398 1400 1402 1404 1404 1406 1407 1411 1415 1417 1422 1429 1437 1442 1446 1452 1457 1461 1464 1469 1473 1477 1481 1484
1441 1440 1435 1425 1425 1417 1392 1393 1395 1395 1392 1395 1392 1392 1393 1394 1393 1393 1394 1395 1398 1399 1400 1401 1401 1401 1401 1403 1409 1412 1417 1422 1427 1433 1440 1446 1450 1455 1459 1463 1466 1469 1473 1476
1440 1439 1435 1426 1420 1408 1390 1390 1392 1393 1394 1399 1395 1397 1395 1393 1390 1390 1392 1392 1392 1393 1394 1394 1394 1395 1396 1398 1402 1406 1412 1416 1420 1426 1431 1436 1441 1446 1451 1455 1459 1463 1466 1468
1437 1439 1436 1434 1423 1420 1398 1392 1392 1391 1393 1396 1396 1396 1395 1395 1397 1395 1394 1394 1391 1390 1389 1388 1389 1390 1391 1393 1398 1403 1406 1411 1414 1420 1426 1431 1435 1440 1444 1448 1451 1455 1457 1460
1435 1437 1434 1432 1423 1417 1399 1395 1395 1397 1400 1397 1397 1397 1397 1396 1398 1396 1394 1393 1390 1388 1387 1385 1385 1387 1390 1393 1396 1399 1404 1407 1412 1417 1421 1425 1430 1434 1438 1442 1445 1448 1452 1455
1424 1426 1432 1430 1427 1426 1397 1396 1397 1398 1397 1397 1398 1398 1398 1398 1398 1396 1394 1392 1389 1388 1386 1384 1385 1386 1388 1391 1395 1398 1402 1407 1410 1414 1418 1422 1426 1430 1433 1438 1442 1445 1449 1452
1420 1412 1416 1413 1404 1396 1396 1397 1396 1395 1396 1396 1396 1395 1395 1395 1395 1394 1393 1391 1390 1389 1387 1386 1386 1388 1390 1392 1394 1397 1401 1405 1409 1412 1416 1420 1424 1428 1432 1435 1439 1443 1447 1449
1412 1408 1413 1408 1395 1394 1395 1396 1395 1394 1393 1393 1392 1392 1392 1392 1392 1391 1390 1390 1389 1389 1389 1389 1389 1390 1392 1394 1396 1399 1402 1404 1408 1411 1415 1419 1422 1426 1430 1433 1436 1440 1443 1446
1407 1407 1406 1407 1397 1392 1392 1393 1393 1393 1392 1392 1391 1390 1390 1390 1390 1389 1389 1389 1389 1389 1389 1390 1391 1392 1394 1396 1398 1400 1402 1405 1408 1410 1413 1416 1420 1424 1427 1430 1434 1438 1441 1444
1403 1401 1404 1394 1392 1392 1390 1391 1390 1389 1389 1390 1389 1389 1389 1389 1389 1388 1388 1388 1388 1389 1389 1390 1391 1392 1395 1397 1399 1401 1403 1406 1408 1409 1412 1415 1418 1422 1425 1429 1432 1436 1439 1442